Temp
62 62 64 64 64 65 65 65 64 64 65 65 65 65 65 65 64 63 64 64 64 64 64 63 63 63 63 63 64 64 63 63 63 62 61 61 60 61 61 60 59 60 62 58 62 59 58 56 57 60 62 61 61 61 63 62 61 61 61 61 61 61 61
61 61 64 65 64 65 64 64 64 64 65 65 65 65 65 65 65 64 64 64 64 64 64 64 64 64 63 63 62 62 62 62 63 63 62 61 61 60 58 57 59 60 59 60 61 59 59 56 56 57 58 60 61 61 62 61 62 61 61 61 62 62 62
62 62 64 64 64 64 64 63 64 64 64 64 64 65 64 64 64 64 64 63 64 64 64 64 64 64 63 63 63 63 63 62 62 63 63 62 62 61 61 58 57 58 59 59 59 58 59 58 57 57 58 58 57 59 61 62 62 61 61 62 62 61 61
62 62 63 63 64 64 63 63 63 63 64 64 63 64 64 64 65 64 64 64 64 64 65 64 63 64 63 63 63 63 63 62 62 62 62 62 62 61 60 61 61 61 60 58 58 59 57 56 57 57 59 61 60 59 61 61 61 62 63 62 62 60 60
62 63 63 63 64 64 64 63 63 63 63 63 63 63 63 64 64 64 64 64 64 64 64 64 64 64 64 63 63 63 63 63 63 62 62 61 61 61 61 61 61 62 60 60 60 61 60 59 60 58 58 60 60 60 61 61 63 63 62 62 61 60 60
61 62 63 63 64 64 64 63 63 62 62 62 62 62 63 64 64 64 63 63 63 63 64 64 64 64 63 63 63 63 63 62 62 62 62 61 62 61 61 61 61 61 61 60 61 61 59 60 61 58 59 62 58 58 60 61 61 62 62 62 62 61 61
61 61 62 62 63 64 64 64 63 63 62 62 62 63 63 64 64 64 64 64 64 64 64 64 64 64 64 63 63 63 63 63 63 62 62 62 61 63 62 61 60 61 60 60 61 61 60 60 59 59 58 58 60 59 60 61 62 60 61 61 62 62 61
61 61 61 62 62 63 64 64 64 63 63 62 62 63 63 63 63 63 63 63 63 63 64 64 64 64 64 64 63 63 63 63 63 62 62 61 61 61 61 62 61 60 60 60 61 61 62 62 61 60 60 56 57 58 58 60 60 60 60 60 61 61 60
61 61 61 61 62 63 63 63 63 63 63 62 62 62 63 63 62 63 63 63 63 63 63 64 63 63 63 63 63 62 62 63 62 62 61 61 62 61 61 61 61 61 60 60 61 61 62 62 62 62 62 61 58 54 57 57 58 59 60 60 60 60 60
61 61 61 61 61 61 62 62 62 62 62 62 62 63 62 62 62 63 63 62 62 62 63 63 64 63 63 63 63 62 62 62 62 62 61 61 61 61 60 61 62 61 60 60 61 61 61 61 62 63 64 63 62 58 54 55 56 57 60 60 61 60 60
61 61 61 61 61 61 61 61 61 61 61 62 62 63 62 62 62 64 62 62 61 62 63 63 64 63 63 63 63 62 63 62 61 60 61 61 60 60 60 60 61 60 60 60 60 60 61 61 62 63 63 63 62 61 58 55 56 58 59 58 59 61 58
61 61 62 62 61 61 61 60 61 61 61 62 62 61 61 61 61 62 62 61 61 61 62 62 63 63 63 62 62 61 61 62 61 60 60 61 60 60 60 60 59 59 59 60 60 60 61 61 62 63 62 61 61 61 60 57 55 57 59 59 59 59 59
61 62 62 62 61 61 61 61 61 60 61 61 61 62 61 61 61 61 60 61 61 61 61 61 62 62 62 62 61 61 61 62 61 61 60 60 61 61 60 60 59 59 59 60 59 60 60 61 61 61 62 61 60 60 60 57 57 58 58 59 59 58 59
61 62 62 61 61 61 61 61 61 61 61 60 61 61 61 61 62 61 61 61 61 61 61 61 61 61 62 61 61 62 61 62 62 60 60 60 61 61 61 60 59 59 60 60 59 59 60 61 61 61 61 60 60 60 61 58 58 56 57 55 56 58 58
62 62 61 61 60 61 61 61 61 61 61 61 61 61 62 61 61 61 61 61 61 61 61 61 60 61 61 60 60 61 61 61 61 60 60 60 60 60 60 60 58 58 60 60 59 60 60 59 60 60 61 61 61 60 61 60 56 56 57 57 56 56 57
61 61 61 61 61 61 61 60 61 61 60 60 61 61 61 60 61 62 62 61 61 61 61 61 60 61 61 61 60 60 61 61 61 59 60 60 60 60 60 59 58 58 59 60 60 60 60 61 61 61 62 62 61 61 62 61 58 57 57 56 55 56 56
61 61 60 61 61 61 61 60 61 61 61 60 60 60 61 61 61 61 62 61 61 61 60 60 60 61 61 61 61 60 60 60 61 61 61 60 60 60 60 59 58 59 60 60 59 59 60 61 61 62 61 60 61 60 60 59 63 58 56 58 54 58 56
60 60 60 61 61 61 61 60 60 61 60 60 60 60 60 61 62 62 61 61 61 61 61 60 60 59 60 60 61 60 60 60 60 60 61 61 61 60 60 60 59 59 60 59 58 59 59 60 61 61 61 61 61 60 60 60 61 59 58 58 55 55 55
59 59 60 60 60 60 60 60 60 60 61 60 60 60 61 61 62 62 62 62 62 61 60 60 60 60 59 59 59 60 60 60 60 60 60 60 60 60 60 59 59 59 60 60 60 60 59 60 60 60 60 61 62 60 59 59 59 59 60 58 56 54 54
59 59 59 59 60 60 60 60 60 60 60 60 60 60 60 61 61 62 61 61 61 61 60 59 59 59 59 59 59 59 59 59 59 60 60 60 60 60 60 59 59 59 60 60 60 60 59 59 59 59 59 59 60 60 58 58 58 58 58 56 54 55 54
60 60 59 59 59 60 60 60 60 60 60 60 60 61 61 61 59 60 59 59 58 59 58 58 57 58 59 59 59 58 59 59 59 59 59 59 59 59 59 60 59 59 60 59 60 60 60 59 58 58 57 58 58 58 58 56 56 57 56 56 55 54 54
60 60 60 60 59 59 59 60 60 59 59 60 61 60 60 59 58 57 56 56 56 56 57 56 56 58 58 58 58 58 59 59 59 58 58 58 57 57 56 56 56 57 59 58 55 56 56 57 58 57 55 57 56 57 55 55 55 55 55 55 53 52 54
59 59 59 59 59 59 60 59 59 59 59 59 58 59 59 58 57 56 55 54 54 54 52 50 50 51 54 58 58 58 58 59 59 58 57 56 55 55 55 56 58 57 55 54 52 48 48 50 54 57 56 57 56 56 56 55 55 55 55 56 55 54 54
59 58 59 59 59 59 59 59 58 58 58 57 57 57 57 56 55 55 55 54 53 51 48 48 44 41 47 51 58 58 58 58 58 58 57 57 55 55 55 56 56 56 54 52 49 45 44 43 44 44 45 48 53 58 57 55 54 54 55 54 52 52 53
58 58 59 59 59 59 59 58 58 57 56 56 55 56 55 55 54 53 53 53 51 50 48 44 41 41 44 48 53 58 58 58 57 56 57 56 56 56 56 56 56 57 56 54 52 49 47 44 44 43 43 43 43 42 46 54 55 54 53 54 53 52 53
58 58 58 59 58 58 57 57 56 56 56 55 56 55 54 53 53 53 53 52 50 50 49 42 42 42 44 46 48 54 58 58 57 55 56 57 56 56 56 55 54 54 57 57 56 55 55 52 47 46 47 46 44 43 42 41 44 55 56 55 54 53 55
56 57 57 56 56 56 56 55 55 55 54 53 54 53 53 52 52 52 52 52 50 49 48 44 42 43 45 45 46 51 57 57 57 57 56 56 56 55 55 55 54 52 53 55 56 56 56 56 55 55 53 52 52 50 45 43 43 44 49 55 56 55 54
55 55 55 55 55 54 53 52 52 52 51 51 52 52 52 51 51 51 51 51 50 48 47 42 42 43 44 45 47 50 57 57 56 55 54 54 54 54 53 54 54 53 52 52 53 55 56 55 54 52 51 51 51 50 49 50 50 51 52 52 52 52 52
53 53 53 52 52 51 51 50 49 49 49 49 48 49 50 51 50 50 51 51 51 49 47 42 42 44 45 46 48 56 56 54 53 53 52 52 53 53 53 53 53 52 51 50 48 47 50 56 55 53 51 50 50 50 50 46 42 43 48 49 50 49 49
52 52 51 50 49 49 48 48 48 48 47 46 46 46 47 48 49 50 50 50 50 48 47 43 42 44 45 46 49 54 53 52 51 50 49 49 49 51 52 52 52 52 51 49 45 45 46 51 55 53 51 50 50 50 50 51 45 41 40 40 40 40 40
50 50 50 49 48 47 47 46 46 47 46 45 45 45 46 47 47 48 48 48 49 49 47 43 42 43 45 46 50 54 53 51 50 49 48 47 46 46 49 51 51 50 49 47 42 44 45 52 54 52 52 50 50 49 49 49 52 50 44 43 42 42 42
49 49 48 47 47 46 46 45 46 46 45 45 45 45 45 46 46 47 47 48 50 48 47 46 43 43 44 46 51 53 52 51 49 48 47 46 46 46 46 46 47 48 48 45 42 43 45 51 53 52 52 51 49 47 46 48 49 50 50 49 48 48 46
48 49 48 47 47 46 46 45 45 45 45 44 44 44 45 44 44 44 45 45 45 46 46 45 43 42 44 46 47 54 53 51 49 47 48 49 48 47 47 47 44 39 39 40 40 40 42 45 51 50 50 49 47 45 47 47 47 48 48 47 47 47 46
46 48 49 48 47 47 46 46 45 45 44 44 44 44 44 43 43 43 43 43 43 44 44 44 42 41 42 43 45 49 52 51 50 48 48 47 48 47 46 45 44 40 38 38 39 39 40 41 44 49 49 48 47 45 45 48 46 45 47 46 45 45 45
45 46 47 48 47 46 46 46 46 46 45 45 45 44 44 43 42 42 42 42 42 41 43 43 42 41 41 42 42 45 50 49 49 48 47 46 46 45 44 44 42 39 38 38 38 38 39 39 40 43 40 38 38 40 46 46 46 46 44 43 43 42 42
43 44 45 46 46 45 46 46 46 46 45 45 45 44 44 44 43 42 41 41 41 41 41 41 40 41 40 40 41 41 43 45 43 49 47 46 44 43 43 42 42 40 39 39 39 39 39 39 41 40 37 38 39 39 42 45 44 44 43 42 42 40 39
42 42 43 44 45 45 45 45 45 45 45 44 44 43 43 43 43 42 41 40 41 41 41 41 40 39 39 39 39 40 40 41 42 45 45 44 43 43 42 42 41 39 39 39 39 39 39 40 41 38 39 38 39 40 44 43 42 42 41 40 40 39 39
MSLP
1016.09 1016.09 1016.01 1016.04 1016.09 1016.24 1016.48 1016.65 1016.72 1016.89 1016.97 1017.09 1017.09 1017.36 1017.68 1017.72 1017.92 1017.97 1017.77 1017.80 1018.01 1018.33 1018.33 1018.41 1018.68 1019.01 1019.33 1019.53 1019.65 1019.84 1020.12 1020.16 1020.41 1020.77 1021.36 1021.57 1021.65 1021.84 1021.97 1022.09 1022.12 1022.09 1022.12 1022.09 1022.21 1022.68 1023.21 1023.77 1023.89 1023.65 1023.53 1023.57 1023.68 1023.77 1023.77 1023.89 1023.92 1023.97 1024.01 1024.08 1024.12 1024.12 1024.17
1016.12 1016.12 1016.12 1016.16 1016.28 1016.33 1016.53 1016.60 1016.77 1016.84 1016.89 1016.89 1017.04 1017.16 1017.33 1017.65 1017.72 1017.72 1017.68 1017.53 1017.72 1017.89 1017.92 1018.16 1018.41 1018.84 1019.24 1019.53 1019.72 1019.92 1020.04 1020.21 1020.28 1020.45 1020.84 1021.28 1021.45 1021.60 1021.92 1022.24 1022.21 1022.36 1022.36 1022.36 1022.33 1022.36 1023.12 1023.72 1023.92 1023.80 1023.80 1023.72 1023.77 1023.80 1023.80 1023.84 1023.84 1023.84 1023.97 1024.08 1024.08 1024.20 1024.29
1016.28 1016.21 1016.09 1016.16 1016.16 1016.24 1016.41 1016.48 1016.57 1016.68 1016.72 1016.84 1017.09 1017.01 1017.24 1017.65 1017.57 1017.68 1017.65 1017.53 1017.57 1017.72 1017.80 1017.92 1018.21 1018.60 1018.89 1019.24 1019.53 1019.57 1019.72 1020.01 1020.24 1020.36 1020.57 1020.84 1021.01 1021.36 1021.53 1021.80 1022.21 1022.60 1022.60 1022.72 1022.60 1022.68 1022.89 1022.92 1023.41 1023.68 1023.68 1023.92 1024.12 1024.05 1023.89 1023.84 1023.89 1023.97 1024.01 1024.08 1024.20 1024.32 1024.36
1016.45 1016.24 1016.09 1015.97 1015.97 1016.09 1016.16 1016.21 1016.24 1016.33 1016.41 1016.57 1016.97 1016.89 1016.92 1017.36 1017.33 1017.45 1017.60 1017.60 1017.65 1017.80 1017.89 1018.01 1018.24 1018.48 1018.72 1018.97 1019.24 1019.45 1019.60 1019.80 1020.09 1020.24 1020.53 1020.80 1021.04 1021.24 1021.45 1021.57 1021.77 1021.92 1022.01 1022.28 1022.41 1022.48 1022.65 1023.12 1023.45 1023.60 1023.68 1023.72 1023.92 1024.17 1024.05 1023.92 1024.01 1024.05 1024.08 1024.20 1024.29 1024.36 1024.41
1016.60 1015.97 1015.72 1015.65 1015.68 1015.84 1015.92 1016.09 1016.09 1016.16 1016.28 1016.48 1016.68 1016.92 1017.01 1017.16 1017.21 1017.33 1017.48 1017.60 1017.68 1017.77 1017.89 1017.92 1018.16 1018.45 1018.80 1019.04 1019.24 1019.36 1019.45 1019.57 1019.84 1020.12 1020.36 1020.72 1021.01 1021.16 1021.33 1021.45 1021.48 1021.57 1021.60 1021.57 1021.84 1022.04 1022.21 1022.53 1022.72 1023.36 1023.65 1023.72 1023.92 1024.08 1024.08 1024.01 1023.92 1024.05 1024.17 1024.29 1024.32 1024.36 1024.36
1015.16 1015.41 1015.72 1015.68 1015.53 1015.65 1015.80 1016.01 1016.09 1016.09 1016.16 1016.45 1016.60 1016.72 1016.65 1016.80 1016.97 1017.12 1017.33 1017.53 1017.68 1017.68 1017.72 1017.89 1018.01 1018.24 1018.68 1018.97 1019.04 1019.12 1019.24 1019.48 1019.68 1019.89 1020.21 1020.45 1020.68 1020.97 1021.04 1021.21 1021.33 1021.41 1021.41 1021.45 1021.65 1021.97 1022.21 1022.28 1022.57 1023.28 1023.53 1023.53 1024.05 1024.17 1024.12 1024.05 1024.20 1024.17 1024.12 1024.24 1024.32 1024.41 1024.41
1015.41 1015.65 1015.41 1015.12 1014.80 1014.92 1015.33 1015.72 1015.80 1015.80 1015.97 1016.12 1016.41 1016.65 1016.72 1016.72 1016.77 1016.84 1017.01 1017.21 1017.36 1017.48 1017.65 1017.77 1017.89 1018.04 1018.41 1018.60 1018.80 1018.97 1019.12 1019.21 1019.45 1019.68 1019.89 1020.21 1020.48 1020.57 1020.77 1021.04 1021.16 1021.16 1021.28 1021.36 1021.48 1021.77 1022.01 1022.33 1022.77 1022.92 1023.48 1023.77 1023.80 1024.08 1024.08 1024.05 1024.08 1024.24 1024.32 1024.36 1024.36 1024.36 1024.44
1015.53 1015.24 1014.84 1014.53 1014.60 1014.89 1015.12 1015.45 1015.60 1015.72 1015.84 1015.89 1016.01 1016.12 1016.21 1016.16 1016.48 1016.84 1017.09 1017.16 1017.24 1017.41 1017.53 1017.68 1017.84 1018.01 1018.12 1018.33 1018.57 1018.72 1018.89 1019.09 1019.33 1019.53 1019.80 1020.12 1020.41 1020.57 1020.65 1020.68 1020.84 1021.04 1021.09 1021.24 1021.36 1021.57 1021.60 1021.72 1022.12 1022.57 1022.97 1023.80 1024.01 1024.01 1024.17 1024.05 1024.12 1024.20 1024.20 1024.32 1024.32 1024.36 1024.41
1015.33 1015.09 1014.72 1014.77 1014.80 1014.80 1015.01 1015.28 1015.53 1015.68 1015.77 1015.84 1015.97 1016.01 1016.09 1016.21 1016.28 1016.48 1016.92 1017.33 1017.45 1017.41 1017.41 1017.48 1017.68 1017.84 1017.97 1018.21 1018.45 1018.60 1018.84 1019.01 1019.28 1019.53 1019.68 1019.92 1020.12 1020.28 1020.36 1020.53 1020.68 1020.80 1020.97 1021.09 1021.21 1021.36 1021.45 1021.60 1021.84 1022.12 1022.33 1022.68 1023.36 1024.20 1024.20 1024.29 1024.24 1024.24 1024.12 1024.17 1024.24 1024.24 1024.29
1015.16 1014.92 1014.92 1014.84 1014.60 1014.57 1014.77 1015.09 1015.41 1015.57 1015.65 1015.77 1015.84 1015.92 1016.09 1016.12 1016.21 1016.33 1016.48 1016.68 1017.24 1017.45 1017.28 1017.36 1017.48 1017.65 1017.89 1018.09 1018.28 1018.53 1018.80 1018.97 1019.16 1019.36 1019.57 1019.77 1019.92 1020.16 1020.33 1020.36 1020.41 1020.60 1020.84 1021.01 1021.12 1021.33 1021.45 1021.60 1021.72 1021.80 1021.89 1022.16 1022.48 1023.33 1024.12 1024.32 1024.24 1024.29 1024.12 1024.05 1023.97 1024.12 1024.24
1014.80 1014.80 1014.89 1014.84 1014.68 1014.77 1014.92 1015.09 1015.28 1015.45 1015.48 1015.48 1015.57 1015.72 1015.92 1016.01 1016.09 1016.12 1016.28 1016.45 1016.60 1017.33 1017.48 1017.33 1017.41 1017.60 1017.80 1018.04 1018.21 1018.41 1018.53 1018.80 1019.09 1019.33 1019.48 1019.60 1019.84 1020.04 1020.21 1020.36 1020.36 1020.57 1020.77 1020.84 1020.97 1021.16 1021.33 1021.45 1021.65 1021.77 1021.84 1022.04 1022.16 1022.57 1023.41 1023.89 1024.05 1024.01 1023.97 1023.92 1023.89 1023.84 1024.24
1014.41 1014.48 1014.57 1014.65 1014.80 1014.97 1015.12 1015.28 1015.24 1015.21 1015.24 1015.28 1015.41 1015.60 1015.80 1015.84 1015.89 1016.01 1016.16 1016.24 1016.41 1016.89 1017.77 1017.68 1017.48 1017.53 1017.77 1018.04 1018.24 1018.45 1018.60 1018.72 1018.92 1019.16 1019.41 1019.48 1019.72 1019.84 1020.01 1020.16 1020.33 1020.45 1020.65 1020.72 1020.89 1021.09 1021.24 1021.41 1021.53 1021.65 1021.89 1022.04 1022.28 1022.33 1022.84 1023.24 1023.77 1023.77 1023.60 1023.68 1023.68 1023.84 1023.92
1014.45 1014.53 1014.48 1014.41 1014.53 1014.65 1014.77 1014.89 1014.92 1015.01 1015.01 1015.16 1015.24 1015.36 1015.60 1015.68 1015.77 1015.89 1016.21 1016.21 1016.33 1016.65 1017.77 1017.72 1017.48 1017.41 1017.65 1017.77 1018.04 1018.33 1018.53 1018.65 1018.84 1019.04 1019.33 1019.48 1019.57 1019.68 1019.84 1020.01 1020.16 1020.28 1020.53 1020.68 1020.89 1021.04 1021.21 1021.33 1021.45 1021.65 1021.89 1022.09 1022.28 1022.41 1022.53 1022.77 1022.97 1023.33 1023.68 1023.57 1023.57 1023.84 1024.01
1014.53 1015.01 1014.97 1014.68 1014.48 1014.45 1014.36 1014.45 1014.45 1014.45 1014.72 1014.92 1015.09 1015.28 1015.45 1015.57 1015.68 1015.92 1016.09 1016.01 1016.21 1016.60 1017.24 1017.24 1017.33 1017.41 1017.57 1017.77 1017.97 1018.09 1018.33 1018.53 1018.80 1019.01 1019.24 1019.48 1019.53 1019.60 1019.72 1019.89 1020.12 1020.24 1020.36 1020.57 1020.84 1021.04 1021.21 1021.33 1021.48 1021.68 1021.89 1022.04 1022.24 1022.36 1022.41 1022.68 1022.92 1023.45 1023.72 1024.01 1023.80 1023.84 1024.20
1014.48 1014.89 1014.84 1014.97 1014.97 1014.57 1014.24 1014.28 1014.28 1014.36 1014.53 1014.65 1014.92 1015.09 1015.28 1015.45 1015.57 1015.89 1015.84 1015.89 1016.12 1016.48 1016.89 1017.04 1017.21 1017.33 1017.48 1017.72 1017.92 1018.09 1018.28 1018.53 1018.72 1019.01 1019.21 1019.41 1019.57 1019.65 1019.72 1019.89 1020.12 1020.33 1020.45 1020.48 1020.68 1020.89 1021.09 1021.33 1021.53 1021.77 1021.89 1021.97 1022.09 1022.24 1022.24 1022.45 1022.89 1023.01 1023.28 1023.77 1023.84 1024.24 1024.32
1014.04 1014.09 1014.60 1014.80 1014.60 1014.41 1014.33 1014.36 1014.33 1014.33 1014.45 1014.68 1014.89 1014.97 1015.12 1015.28 1015.53 1015.68 1015.65 1015.77 1016.01 1016.33 1016.60 1016.89 1017.09 1017.21 1017.45 1017.60 1017.89 1018.12 1018.21 1018.36 1018.60 1018.92 1019.16 1019.33 1019.48 1019.60 1019.72 1019.89 1020.16 1020.28 1020.41 1020.53 1020.60 1020.72 1020.97 1021.21 1021.41 1021.57 1021.77 1021.89 1021.97 1022.09 1022.16 1022.16 1022.60 1023.01 1023.09 1023.41 1023.89 1024.05 1024.29
1013.92 1014.04 1014.21 1014.16 1014.24 1014.24 1014.21 1014.24 1014.28 1014.41 1014.48 1014.68 1014.92 1015.01 1015.01 1015.21 1015.45 1015.60 1015.65 1015.72 1015.89 1016.16 1016.53 1016.80 1017.04 1017.21 1017.33 1017.53 1017.77 1017.97 1018.16 1018.33 1018.48 1018.72 1018.97 1019.21 1019.41 1019.48 1019.60 1019.84 1019.97 1020.04 1020.24 1020.41 1020.65 1020.80 1020.97 1021.12 1021.33 1021.48 1021.68 1021.84 1021.89 1022.04 1022.16 1022.24 1022.21 1022.53 1023.01 1023.04 1023.68 1023.72 1024.17
1013.92 1013.80 1013.84 1013.92 1014.09 1014.24 1014.36 1014.45 1014.41 1014.41 1014.48 1014.60 1014.72 1014.80 1014.97 1015.09 1015.33 1015.57 1015.72 1015.77 1015.84 1016.04 1016.33 1016.68 1017.01 1017.24 1017.36 1017.48 1017.60 1017.84 1018.09 1018.24 1018.41 1018.60 1018.80 1019.01 1019.21 1019.36 1019.53 1019.60 1019.84 1020.04 1020.21 1020.33 1020.60 1020.72 1020.92 1021.09 1021.24 1021.33 1021.53 1021.68 1021.80 1022.01 1022.21 1022.28 1022.33 1022.45 1022.72 1022.92 1023.41 1024.12 1024.20
1013.68 1013.60 1013.65 1013.84 1014.01 1014.09 1014.12 1014.28 1014.33 1014.33 1014.33 1014.36 1014.60 1014.68 1014.80 1015.04 1015.16 1015.48 1015.68 1015.72 1015.60 1015.84 1016.21 1016.53 1016.84 1017.09 1017.28 1017.53 1017.68 1017.80 1017.92 1018.12 1018.28 1018.48 1018.72 1018.97 1019.16 1019.28 1019.45 1019.65 1019.77 1019.89 1020.04 1020.09 1020.28 1020.53 1020.77 1020.84 1021.12 1021.24 1021.41 1021.57 1021.72 1021.97 1022.12 1022.41 1022.48 1022.57 1022.68 1023.04 1023.24 1023.68 1024.41
1013.45 1013.48 1013.53 1013.57 1013.60 1013.68 1013.89 1013.97 1014.09 1014.12 1014.16 1014.12 1014.36 1014.60 1014.80 1015.01 1015.16 1015.41 1015.60 1015.57 1015.57 1015.77 1016.12 1016.45 1016.77 1017.04 1017.24 1017.45 1017.60 1017.77 1018.01 1018.21 1018.36 1018.53 1018.68 1018.89 1019.12 1019.24 1019.36 1019.48 1019.65 1019.77 1019.89 1020.01 1020.09 1020.24 1020.45 1020.68 1020.80 1020.92 1021.16 1021.45 1021.60 1021.80 1022.12 1022.36 1022.57 1022.65 1022.80 1023.09 1023.53 1023.68 1023.92
1013.24 1013.24 1013.36 1013.41 1013.41 1013.48 1013.68 1013.77 1013.80 1013.92 1014.09 1014.24 1014.48 1014.57 1014.65 1014.89 1015.16 1015.45 1015.57 1015.53 1015.65 1015.80 1016.12 1016.45 1016.77 1017.01 1017.16 1017.36 1017.53 1017.77 1017.97 1018.21 1018.45 1018.65 1018.84 1019.04 1019.12 1019.24 1019.28 1019.41 1019.53 1019.65 1019.68 1019.80 1019.89 1020.01 1020.21 1020.33 1020.65 1020.84 1021.21 1021.28 1021.48 1021.68 1022.09 1022.45 1022.60 1022.68 1022.84 1023.04 1023.21 1023.45 1023.77
1013.24 1013.36 1013.45 1013.24 1013.24 1013.41 1013.48 1013.57 1013.60 1013.77 1013.92 1014.04 1014.24 1014.36 1014.60 1015.01 1015.33 1015.57 1015.68 1015.65 1015.77 1015.97 1016.12 1016.41 1016.65 1016.84 1017.16 1017.41 1017.48 1017.72 1017.97 1018.16 1018.36 1018.68 1018.97 1019.16 1019.36 1019.48 1019.60 1019.72 1019.68 1019.65 1019.68 1019.72 1019.89 1019.97 1020.04 1020.09 1020.33 1020.72 1021.21 1021.28 1021.53 1021.77 1022.12 1022.33 1022.53 1022.68 1022.89 1023.01 1023.24 1023.53 1023.65
1013.12 1013.09 1012.97 1012.84 1013.09 1013.16 1013.28 1013.41 1013.48 1013.57 1013.80 1013.89 1014.12 1014.36 1014.65 1015.12 1015.33 1015.41 1015.65 1015.77 1015.97 1016.12 1016.33 1016.60 1016.80 1016.89 1016.92 1017.09 1017.41 1017.68 1017.97 1018.16 1018.36 1018.60 1018.89 1019.21 1019.48 1019.72 1019.80 1019.92 1019.97 1019.97 1019.97 1020.04 1020.16 1020.28 1020.36 1020.45 1020.53 1020.65 1021.04 1021.21 1021.36 1021.60 1021.84 1022.09 1022.28 1022.41 1022.57 1022.77 1022.97 1023.33 1023.48
1013.01 1012.80 1012.68 1012.89 1012.92 1012.92 1012.97 1013.12 1013.41 1013.48 1013.65 1013.68 1014.01 1014.48 1014.84 1015.01 1015.12 1015.28 1015.33 1015.57 1015.97 1016.24 1016.57 1016.97 1017.16 1017.12 1017.01 1017.04 1017.24 1017.60 1017.89 1018.33 1018.48 1018.65 1018.80 1018.97 1019.41 1019.80 1020.12 1020.21 1020.24 1020.41 1020.53 1020.68 1020.80 1020.68 1020.77 1020.97 1021.21 1021.41 1021.57 1021.65 1021.68 1021.45 1021.65 1022.04 1022.36 1022.57 1022.60 1022.80 1023.28 1023.41 1023.48
1013.01 1012.84 1012.65 1012.57 1012.65 1012.68 1012.72 1012.80 1013.12 1013.33 1013.65 1013.80 1014.09 1014.53 1015.01 1015.21 1015.21 1015.21 1015.53 1015.92 1016.12 1016.41 1016.68 1017.21 1017.28 1017.24 1017.12 1017.04 1017.21 1017.53 1017.89 1018.24 1018.60 1018.72 1018.89 1019.16 1019.53 1019.80 1020.01 1020.16 1020.33 1020.36 1020.60 1020.77 1020.89 1021.21 1021.60 1021.80 1021.77 1021.72 1021.84 1022.04 1022.12 1022.33 1022.24 1021.97 1022.24 1022.65 1022.77 1023.01 1023.41 1023.60 1023.65
1012.97 1012.80 1012.68 1012.48 1012.60 1012.72 1012.68 1012.84 1013.09 1013.45 1013.77 1013.97 1014.21 1014.72 1015.28 1015.41 1015.33 1015.48 1015.60 1015.97 1016.41 1016.72 1016.92 1017.28 1017.16 1017.24 1017.21 1017.16 1017.33 1017.53 1017.92 1018.24 1018.57 1019.04 1019.16 1019.21 1019.48 1019.80 1020.01 1020.21 1020.53 1020.65 1020.65 1020.77 1020.84 1021.01 1021.21 1021.65 1021.89 1021.97 1022.12 1022.36 1022.77 1022.89 1022.92 1022.97 1022.80 1022.57 1022.72 1022.89 1023.16 1023.48 1023.48
1012.97 1012.80 1012.72 1012.80 1012.89 1012.97 1013.04 1013.16 1013.33 1013.45 1013.77 1014.04 1014.33 1015.04 1015.53 1015.57 1015.65 1015.77 1016.01 1016.24 1016.65 1017.01 1017.09 1017.28 1017.16 1017.28 1017.41 1017.41 1017.53 1017.72 1018.21 1018.53 1018.84 1019.12 1019.33 1019.48 1019.68 1019.92 1020.12 1020.28 1020.68 1021.12 1021.16 1020.97 1020.84 1020.84 1021.01 1021.24 1021.60 1021.80 1022.04 1022.41 1022.72 1022.92 1023.04 1023.24 1023.33 1023.45 1023.41 1023.28 1023.28 1023.53 1024.05
1013.33 1013.28 1013.24 1013.12 1013.16 1013.24 1013.48 1013.77 1014.04 1014.33 1014.41 1014.65 1014.84 1015.21 1015.68 1015.77 1015.92 1016.12 1016.36 1016.53 1016.77 1017.16 1017.41 1017.41 1017.33 1017.53 1017.68 1017.72 1017.84 1018.01 1018.45 1018.84 1019.24 1019.57 1019.80 1019.97 1020.12 1020.28 1020.45 1020.48 1020.48 1020.97 1021.28 1021.12 1021.16 1021.09 1021.21 1021.53 1021.84 1022.21 1022.48 1022.80 1023.01 1023.21 1023.21 1023.24 1023.36 1023.48 1023.53 1023.65 1023.80 1024.05 1024.32
1014.16 1013.92 1014.12 1014.28 1014.04 1014.01 1014.12 1014.41 1014.72 1014.89 1014.97 1015.16 1015.72 1016.16 1016.16 1016.01 1016.12 1016.45 1016.68 1016.68 1016.72 1017.21 1017.72 1017.72 1017.65 1017.53 1017.68 1017.84 1018.04 1018.41 1018.77 1019.21 1019.77 1020.12 1020.45 1020.65 1020.72 1020.80 1020.89 1020.97 1021.04 1021.24 1021.45 1021.41 1021.48 1021.36 1021.41 1021.57 1021.92 1022.41 1022.92 1023.36 1023.60 1023.72 1023.92 1024.20 1024.20 1024.12 1024.12 1024.20 1024.29 1024.44 1024.65
1015.01 1014.65 1014.65 1015.24 1015.45 1015.12 1014.97 1015.09 1015.24 1015.36 1015.65 1016.01 1016.36 1017.04 1017.21 1016.77 1016.72 1016.89 1017.09 1017.21 1017.21 1017.77 1018.09 1018.28 1018.12 1017.84 1017.68 1017.89 1018.28 1018.84 1019.24 1019.68 1020.12 1020.48 1020.84 1021.09 1021.24 1021.36 1021.24 1021.33 1021.45 1021.57 1021.57 1021.60 1021.68 1021.57 1021.65 1021.65 1022.16 1022.68 1023.12 1023.57 1023.89 1023.97 1024.32 1024.53 1024.65 1024.69 1024.65 1024.77 1024.81 1024.84 1024.96
1016.01 1015.89 1015.41 1015.45 1016.12 1016.36 1016.04 1015.84 1016.09 1016.21 1016.48 1016.65 1017.04 1017.45 1017.84 1017.33 1017.41 1017.57 1017.65 1017.68 1017.65 1017.72 1018.33 1018.57 1018.48 1018.33 1018.21 1018.16 1018.21 1018.89 1019.45 1019.84 1020.45 1020.77 1021.24 1021.45 1021.53 1022.04 1022.21 1021.68 1021.80 1021.84 1021.80 1021.92 1021.92 1021.92 1022.01 1021.92 1022.36 1022.77 1023.01 1023.33 1023.60 1023.89 1024.41 1024.60 1024.56 1024.77 1024.81 1024.81 1025.01 1025.01 1025.05
1016.89 1016.84 1016.84 1016.33 1016.57 1016.80 1016.65 1016.77 1016.80 1016.92 1017.24 1017.28 1017.60 1017.77 1018.45 1017.77 1017.92 1018.28 1018.45 1018.28 1018.28 1018.48 1018.89 1018.97 1018.72 1018.60 1018.57 1018.65 1018.72 1019.12 1019.57 1020.01 1020.68 1021.21 1021.28 1021.68 1022.01 1022.33 1022.65 1022.41 1022.28 1022.12 1022.16 1022.21 1022.16 1022.28 1022.33 1022.24 1022.57 1022.84 1023.09 1023.33 1023.80 1024.32 1024.84 1024.81 1024.53 1024.53 1024.60 1024.77 1025.05 1024.89 1025.08
1017.77 1017.53 1017.53 1017.48 1017.28 1017.36 1017.04 1017.12 1017.33 1017.53 1017.92 1018.04 1018.21 1018.60 1018.97 1018.41 1018.60 1019.04 1019.01 1019.16 1019.28 1019.45 1019.48 1019.57 1019.36 1019.01 1018.97 1019.12 1019.16 1019.24 1019.57 1019.89 1020.77 1021.36 1021.60 1021.68 1022.12 1022.65 1022.77 1022.72 1022.92 1022.92 1022.65 1022.57 1022.60 1022.60 1022.60 1022.53 1022.68 1023.16 1023.24 1023.36 1023.72 1024.44 1024.89 1024.77 1024.89 1024.96 1025.24 1025.32 1025.53 1025.60 1025.84
1018.65 1018.33 1018.12 1018.04 1017.89 1017.72 1017.65 1017.48 1017.60 1017.89 1018.09 1018.36 1018.60 1019.12 1019.48 1019.60 1019.57 1019.77 1019.72 1019.97 1020.16 1020.16 1020.12 1020.09 1020.09 1019.65 1019.45 1019.48 1019.60 1019.53 1019.84 1020.28 1020.77 1021.16 1021.72 1022.16 1022.28 1022.53 1022.92 1023.21 1023.45 1023.57 1023.09 1023.01 1023.04 1023.12 1023.16 1023.21 1023.21 1023.33 1023.45 1023.68 1024.12 1024.72 1024.81 1024.89 1025.32 1025.29 1025.32 1025.60 1025.81 1025.96 1026.08
1019.41 1019.16 1018.84 1018.72 1018.48 1018.33 1018.24 1018.21 1018.24 1018.12 1018.28 1018.53 1018.89 1019.53 1019.89 1020.24 1020.36 1020.48 1020.41 1020.57 1020.84 1020.84 1020.80 1020.84 1020.89 1020.53 1020.21 1020.01 1020.04 1019.92 1020.12 1020.77 1020.80 1021.04 1021.80 1022.33 1022.68 1022.97 1023.33 1023.60 1023.89 1023.97 1023.45 1023.41 1023.53 1023.57 1023.72 1023.84 1023.84 1023.89 1024.48 1024.60 1024.89 1024.96 1025.12 1025.32 1025.44 1025.53 1025.77 1026.01 1026.24 1026.56 1026.81
1020.24 1020.01 1019.77 1019.48 1019.21 1019.12 1019.04 1018.92 1019.01 1019.09 1019.09 1019.33 1019.57 1020.09 1020.24 1020.45 1020.45 1020.57 1020.65 1021.12 1021.33 1021.41 1021.41 1021.41 1021.45 1021.33 1021.12 1020.84 1020.68 1020.60 1020.60 1020.89 1021.01 1020.92 1021.53 1022.45 1022.97 1023.45 1023.72 1023.92 1024.12 1023.92 1023.68 1023.77 1023.92 1024.17 1024.32 1024.32 1024.41 1024.84 1025.05 1025.08 1025.24 1025.41 1025.44 1025.60 1025.77 1025.89 1026.17 1026.48 1026.56 1026.96 1027.44
1020.84 1020.77 1020.65 1020.28 1019.97 1019.92 1019.80 1019.68 1019.68 1019.80 1019.97 1020.12 1020.21 1020.41 1020.84 1020.97 1020.89 1020.97 1021.12 1021.48 1021.72 1021.89 1021.97 1022.01 1022.09 1022.04 1021.92 1021.65 1021.48 1021.41 1021.41 1021.48 1021.41 1021.77 1022.16 1022.80 1023.28 1023.57 1023.84 1024.08 1024.29 1024.12 1024.08 1024.20 1024.41 1024.60 1024.77 1024.93 1025.20 1025.36 1025.41 1025.53 1025.60 1025.65 1025.72 1025.93 1026.12 1026.44 1026.56 1026.77 1026.89 1027.29 1027.72
Wind_Speed
3 2 2 2 3 4 5 6 6 6 6 7 7 5 6 6 8 9 7 7 7 6 6 7 6 6 5 5 7 6 5 6 9 9 8 8 9 6 2 1 1 1 3 3 5 5 5 6 3 2 1 3 2 2 2 3 3 3 2 1 2 2 2
2 2 1 1 2 4 5 4 6 6 6 7 5 6 8 8 8 8 8 7 6 6 6 5 5 6 7 6 7 7 7 6 6 5 7 8 6 6 5 2 3 3 3 2 4 4 4 5 3 4 3 2 2 2 1 1 2 1 2 2 3 3 2
3 2 1 2 2 3 5 5 5 6 6 6 5 8 7 7 8 7 8 8 7 7 6 6 5 6 7 7 7 8 8 7 5 6 7 7 7 5 4 5 4 3 3 2 2 4 3 2 5 6 4 5 4 1 1 2 2 2 3 3 3 3 3
2 2 4 4 4 4 5 5 6 6 5 5 5 5 5 7 7 7 7 7 7 7 7 7 7 7 7 8 7 7 8 8 7 6 5 4 5 5 6 6 7 8 7 5 6 5 4 4 5 5 5 5 3 4 1 1 2 3 4 3 3 2 1
4 7 8 7 6 6 6 5 4 4 5 4 5 3 3 5 5 6 7 6 6 7 7 7 6 6 6 7 6 6 6 7 6 6 5 6 7 5 6 5 6 6 5 5 6 6 6 4 6 6 6 4 3 2 1 2 4 4 3 3 2 2 2
13 9 5 4 5 6 5 4 4 5 4 4 4 6 7 8 6 6 6 7 6 6 6 6 6 7 7 7 8 8 7 8 8 8 7 8 8 8 8 6 5 6 5 3 6 6 4 5 6 7 4 5 3 2 1 1 2 2 2 2 2 2 3
5 5 8 8 9 8 7 6 6 6 5 6 6 6 5 5 5 6 6 6 6 6 6 7 7 8 7 7 7 7 8 7 6 8 8 7 7 8 6 6 6 6 5 4 6 6 6 7 7 9 8 3 2 3 1 1 2 2 1 2 2 3 3
5 8 9 10 8 7 6 7 7 5 6 6 7 7 7 7 6 4 4 6 6 6 6 6 6 7 7 6 6 7 6 6 7 7 6 7 7 7 7 7 6 5 5 5 6 6 6 7 8 8 9 8 4 3 2 1 1 2 1 1 1 2 2
5 7 6 2 4 7 7 7 6 5 5 5 5 5 5 6 7 7 5 3 4 5 6 7 7 7 7 7 6 6 7 5 7 8 7 7 7 8 8 6 6 6 5 6 6 6 6 6 7 7 8 8 9 5 3 3 2 3 2 2 0 2 3
7 9 6 5 7 6 5 5 5 6 5 5 5 5 5 6 6 6 7 8 5 6 6 6 7 7 7 7 6 7 7 6 7 8 6 7 6 7 6 7 6 6 5 5 5 5 5 5 5 7 8 9 7 7 7 6 5 5 3 3 2 1 2
8 7 3 4 4 3 3 3 3 5 7 7 6 6 6 7 6 7 7 7 7 5 6 6 6 7 7 6 7 7 7 7 6 5 5 6 6 6 5 5 4 5 5 6 6 6 6 7 6 7 7 4 5 7 7 6 6 6 3 2 2 2 2
7 5 3 3 3 4 3 3 5 7 6 6 6 5 6 7 7 6 6 6 5 5 3 5 5 6 6 6 6 6 6 6 7 6 5 6 5 6 6 6 4 5 5 5 5 5 5 6 6 6 6 4 4 4 7 3 4 4 3 5 4 1 3
3 4 5 6 7 9 10 9 8 7 7 6 6 7 7 7 7 7 6 6 6 6 6 7 7 6 7 7 7 6 6 6 7 6 5 4 5 6 6 6 5 5 5 5 5 5 6 5 5 6 5 4 4 4 5 4 3 4 2 2 3 2 3
0 2 6 7 7 6 5 6 8 8 6 7 7 7 7 7 8 7 7 7 8 8 7 6 5 6 6 6 5 6 6 6 6 5 5 5 5 6 6 6 5 4 5 6 5 5 5 5 5 4 5 5 5 4 5 4 4 3 1 1 1 2 2
2 6 10 7 5 8 8 7 7 6 8 7 7 8 8 7 7 6 7 6 7 7 7 7 6 6 6 6 5 4 6 6 6 5 5 6 5 4 5 6 5 4 4 6 6 6 6 6 6 6 5 6 6 5 4 4 2 4 5 2 2 2 2
9 12 8 8 10 8 5 4 5 7 7 6 6 7 7 7 6 6 6 6 7 7 7 7 6 6 6 7 7 6 6 7 7 6 6 5 5 5 6 5 5 5 5 5 5 5 6 6 6 6 6 5 6 6 4 3 4 3 5 4 2 3 3
11 9 8 8 8 7 5 5 5 6 6 5 6 5 6 6 5 5 5 6 7 7 7 6 6 6 7 7 7 7 6 6 6 7 7 6 6 6 6 6 6 6 6 7 5 5 5 5 6 6 7 6 6 6 5 4 4 4 4 5 3 3 3
7 8 8 6 6 5 3 3 5 6 6 7 6 7 5 5 5 5 5 7 7 8 8 8 7 6 5 6 7 7 7 6 6 6 6 7 6 6 6 7 7 6 6 7 5 6 6 7 5 6 7 6 6 5 4 4 4 4 5 5 3 0 2
6 7 6 5 6 7 6 7 7 5 7 8 7 6 6 6 6 6 6 7 8 8 7 7 7 7 7 6 5 6 6 6 6 6 6 6 6 6 6 6 7 6 7 7 7 6 6 7 6 6 6 6 5 5 5 4 4 3 4 3 4 3 1
7 6 5 5 6 6 7 7 8 8 6 7 8 7 5 5 4 5 6 6 7 8 7 6 6 6 6 6 7 7 6 6 6 5 5 6 6 6 6 6 7 6 7 6 7 8 7 6 6 7 6 6 5 6 5 5 4 4 4 4 2 2 3
6 6 3 5 7 7 7 8 8 6 6 7 6 6 7 6 4 4 5 5 6 6 6 6 5 6 6 6 6 6 7 7 7 6 6 5 5 5 6 6 6 6 6 6 6 6 7 7 5 5 4 5 5 5 5 4 4 4 4 4 2 3 2
5 4 4 7 7 8 8 8 8 7 7 7 6 7 6 6 7 6 5 6 7 5 6 5 5 6 6 5 6 7 7 8 7 7 6 5 4 4 4 4 4 4 4 5 5 6 6 6 7 6 4 5 6 6 5 4 5 5 4 4 3 2 3
6 6 9 10 8 9 9 9 8 8 7 6 6 7 8 6 6 7 7 6 6 5 4 3 2 5 7 7 7 6 7 8 8 8 8 7 5 5 5 4 5 7 7 7 7 7 8 7 8 6 5 6 8 7 7 6 5 5 5 5 4 5 5
7 8 8 8 8 9 10 9 7 7 7 7 8 7 7 8 8 7 8 8 7 5 3 2 2 3 8 11 8 8 8 7 7 8 8 9 7 7 6 6 6 8 9 10 11 17 16 16 15 16 15 12 7 5 7 6 4 3 3 3 3 4 2
7 7 8 8 8 9 9 9 9 8 7 7 8 7 6 5 7 7 7 7 6 5 4 3 1 4 9 12 10 9 8 8 7 7 8 8 7 7 8 7 6 5 6 8 10 13 15 15 17 17 18 17 16 15 9 6 6 4 3 5 5 3 4
6 6 7 8 4 6 7 7 7 7 6 7 8 7 6 6 7 7 8 8 6 5 4 3 4 7 10 12 13 10 7 8 8 7 6 8 8 8 7 7 6 4 5 12 11 10 11 12 13 17 16 17 16 15 14 15 11 6 6 8 7 4 3
3 3 3 2 4 4 5 6 5 5 7 7 8 7 5 6 7 7 7 8 7 4 4 3 7 10 10 13 13 11 8 8 7 7 6 6 6 6 6 7 7 5 4 5 6 9 9 10 9 10 10 9 8 10 11 12 11 11 7 5 5 5 0
6 7 4 3 5 5 6 6 7 6 6 6 6 7 7 7 7 7 7 7 7 5 4 5 10 12 12 14 14 11 9 8 8 8 7 7 6 6 5 5 8 8 5 6 5 8 10 10 10 9 9 9 9 7 7 7 7 6 6 6 6 5 3
8 10 11 9 6 7 8 8 8 6 7 8 8 5 4 6 8 8 7 7 8 8 6 8 11 14 15 16 15 9 10 10 9 9 9 8 8 6 6 7 7 7 6 6 5 11 11 10 10 10 9 9 8 8 8 5 5 7 7 7 6 6 5
9 8 11 11 9 8 9 9 9 7 9 9 9 8 6 6 7 7 7 6 9 8 7 7 9 13 17 17 13 9 10 8 8 9 9 8 8 7 6 6 6 6 6 5 3 10 12 13 10 9 9 9 7 7 6 5 8 11 13 14 14 13 13
11 9 9 11 9 8 8 9 10 9 9 9 9 8 5 6 9 8 8 8 7 10 8 7 8 9 11 13 13 11 7 8 8 8 7 8 10 9 8 13 7 6 7 5 8 10 9 11 10 9 9 10 9 9 6 3 3 5 9 12 13 14 14
11 10 8 9 9 8 10 10 9 10 9 9 9 8 4 6 10 9 8 10 14 11 7 7 10 11 12 11 11 9 8 8 9 7 8 9 9 8 6 9 11 8 7 9 13 11 10 9 8 7 7 9 8 7 3 2 5 6 7 9 9 10 11
12 10 9 8 7 7 8 10 10 11 10 9 9 9 5 9 11 9 9 10 10 9 8 7 9 12 11 11 10 10 8 10 10 9 7 7 7 5 5 5 7 10 12 13 12 12 11 10 8 6 6 8 9 8 2 6 7 7 8 8 7 8 8
12 11 9 7 6 7 7 9 11 11 10 10 10 10 9 8 10 10 10 10 10 10 9 9 10 13 12 11 9 8 8 10 9 10 8 7 7 6 5 5 5 8 13 14 14 14 14 12 10 8 7 8 6 6 5 7 7 7 8 8 8 7 6
11 10 10 9 7 9 8 9 8 10 10 10 12 10 9 8 8 8 9 11 10 10 12 15 9 13 14 14 12 11 10 7 8 12 9 8 7 6 5 4 4 7 14 15 15 16 16 15 15 10 10 11 11 10 8 6 5 6 6 6 7 7 6
12 10 10 9 9 9 8 9 9 8 10 10 10 10 8 6 8 9 10 10 9 9 10 10 14 11 14 14 14 14 14 11 10 10 11 9 7 5 4 6 7 13 16 16 16 15 14 15 13 9 12 11 11 11 8 6 6 6 6 6 7 7 6
12 11 11 9 9 9 8 8 8 8 7 8 7 9 7 6 7 9 9 9 9 8 8 8 12 14 12 15 15 15 15 14 13 10 10 8 7 7 8 7 8 15 16 17 17 16 15 13 10 12 12 11 10 8 7 6 7 7 7 7 7 6 6
Wind_Direction
285 297 210 196 166 151 158 166 166 163 169 186 202 179 138 157 161 167 179 185 179 164 176 181 179 173 163 161 176 162 152 170 170 169 165 169 176 186 175 235 11 93 119 64 143 161 148 158 158 59 97 139 131 193 197 184 203 198 164 106 108 91 87
28 7 0 354 156 150 160 166 174 168 179 194 185 173 162 173 183 170 173 192 184 179 191 186 175 164 169 166 164 162 180 180 184 163 156 179 185 174 145 71 77 100 78 45 119 88 139 154 161 175 161 105 109 158 140 166 209 158 135 120 110 113 118
55 34 152 234 208 173 184 185 180 174 174 182 169 192 152 153 192 162 174 184 186 187 196 195 173 162 164 175 188 183 175 171 171 164 179 177 184 152 158 139 124 116 66 54 74 104 73 102 162 179 161 167 172 130 87 160 131 99 107 108 101 109 101
97 171 190 214 215 214 208 197 191 187 181 178 159 203 164 156 189 167 172 185 186 185 189 184 183 176 179 184 186 179 171 170 171 172 164 153 164 157 156 166 167 170 173 173 183 176 144 147 133 153 166 179 170 132 62 34 80 103 112 113 119 99 105
252 206 200 204 204 223 230 221 202 188 196 175 164 174 148 164 177 184 174 181 189 189 189 185 178 174 170 174 174 183 178 175 166 167 167 157 167 175 181 179 184 182 176 172 171 170 161 151 144 147 161 142 104 88 114 65 72 85 97 92 87 90 69
203 197 188 205 216 230 234 235 212 210 199 188 169 169 189 175 182 192 183 182 192 197 185 174 171 161 172 178 180 183 176 173 177 175 172 182 175 181 195 192 176 181 183 159 141 141 110 126 130 132 126 152 147 137 129 154 112 74 66 92 102 84 85
210 158 191 200 212 210 210 224 222 216 204 197 179 184 180 181 194 196 190 191 195 188 182 176 172 175 176 173 175 178 180 182 169 178 185 179 182 194 172 170 185 177 168 162 146 144 146 134 144 149 142 137 139 133 139 136 128 148 98 74 93 108 104
182 193 196 205 205 208 209 217 223 218 209 201 185 175 177 172 168 178 200 198 195 188 180 175 171 174 174 171 178 183 178 168 177 176 181 169 177 178 180 186 178 168 162 162 157 166 161 159 151 157 148 151 136 132 128 76 128 164 175 101 139 130 121
216 220 223 144 189 205 207 209 223 219 221 208 207 185 179 178 175 166 168 223 232 205 189 179 174 172 172 173 176 176 177 165 167 177 180 177 184 183 183 173 161 175 159 163 169 161 166 152 154 160 162 161 153 156 158 177 185 210 178 168 134 131 144
225 224 219 191 195 201 199 202 206 212 217 215 206 198 183 178 174 170 173 172 195 229 198 188 177 173 171 168 171 173 174 166 164 176 168 178 182 172 172 176 177 157 164 156 153 149 144 148 162 171 174 173 164 146 167 198 203 203 216 192 192 171 145
215 231 231 205 203 196 207 202 200 205 209 208 199 197 187 181 170 176 176 175 172 185 222 186 179 172 163 166 171 177 172 159 155 148 168 163 160 158 154 156 154 142 155 158 160 154 153 160 164 180 185 169 158 149 161 181 203 197 194 234 209 169 176
211 195 184 205 201 210 220 210 214 219 209 202 195 190 186 175 165 170 179 165 153 149 208 210 178 164 162 160 167 160 158 156 150 154 164 158 156 151 152 153 145 137 152 148 140 145 150 157 173 181 175 130 143 142 150 132 148 229 188 183 224 225 157
207 199 206 196 195 195 194 200 204 208 204 190 193 185 188 177 170 170 170 165 152 141 179 191 176 161 160 168 156 156 162 154 151 155 157 156 149 152 148 149 149 141 143 135 135 150 160 170 166 170 157 127 117 137 136 127 131 165 202 207 180 176 155
144 282 250 230 228 231 218 192 195 198 174 186 179 182 185 179 172 176 172 163 154 156 179 163 160 154 154 151 161 155 156 152 153 148 147 146 149 150 150 144 141 142 146 135 146 145 154 161 149 146 130 127 131 158 144 127 131 126 109 338 147 162 143
133 191 221 227 218 224 212 201 192 176 186 181 176 179 185 179 167 182 172 157 154 155 165 159 152 155 154 151 155 152 152 154 146 141 148 149 149 149 143 138 132 135 149 141 147 155 159 155 152 148 159 151 158 172 176 117 133 139 175 143 121 67 134
223 217 206 196 211 218 218 201 188 184 183 173 181 179 177 169 170 189 168 159 151 155 158 155 160 159 159 159 160 162 164 160 149 145 149 156 151 141 134 130 139 151 150 146 160 153 152 156 155 158 163 164 163 177 186 148 126 134 161 211 139 150 171
226 226 204 206 212 218 202 197 190 190 177 159 172 185 159 161 169 181 171 161 155 153 147 151 162 169 166 166 162 162 164 158 148 151 154 154 151 151 148 141 160 162 154 150 159 148 161 154 158 158 159 175 162 176 186 171 165 136 163 165 208 179 169
223 225 222 219 214 214 222 209 201 189 166 172 181 166 162 159 170 174 177 172 158 149 154 157 161 167 171 168 163 159 159 152 148 151 154 158 159 151 153 159 162 160 153 147 158 159 162 166 164 158 166 166 167 170 165 179 175 133 147 179 143 85 112
232 221 201 194 187 193 185 205 205 195 179 175 170 169 163 171 171 182 180 176 158 152 155 161 164 169 166 160 157 155 150 146 145 147 147 144 147 147 149 154 159 163 162 160 171 168 167 174 165 166 171 178 173 149 161 173 172 150 142 134 154 134 90
236 212 195 181 183 190 193 191 192 191 190 172 163 161 159 161 168 172 180 167 150 149 154 155 157 155 157 158 156 147 133 127 131 134 128 133 138 140 145 148 160 161 167 176 168 172 173 174 176 184 175 176 169 152 158 166 160 156 142 128 93 112 138
239 247 206 185 190 190 184 188 189 176 163 162 168 168 162 155 146 148 159 138 128 132 134 136 142 151 156 157 147 135 134 128 120 113 105 116 130 145 160 164 156 163 167 178 186 178 173 173 177 171 164 157 158 158 157 143 145 145 144 135 123 155 158
239 218 209 214 197 191 190 189 180 170 168 161 164 158 131 133 131 118 99 110 114 116 131 142 152 152 145 139 137 133 135 131 129 121 112 106 88 88 80 86 112 144 147 150 166 162 171 162 157 144 147 139 137 137 120 124 131 131 128 136 122 102 125
233 214 210 210 196 189 191 187 185 169 166 149 133 133 131 134 136 132 124 104 98 105 106 73 75 161 158 148 136 126 127 135 134 133 128 111 89 69 73 74 72 80 82 82 85 97 96 88 67 81 134 143 138 130 137 140 149 156 149 159 168 146 157
232 225 221 209 197 186 183 179 173 165 157 143 131 126 133 144 138 136 129 124 116 103 83 74 59 190 147 136 130 131 133 134 136 135 134 129 122 110 96 90 91 84 84 83 78 78 75 76 80 81 75 69 60 116 138 109 86 109 106 99 111 98 104
235 224 228 215 196 186 177 167 163 156 142 130 124 121 131 146 129 121 105 103 105 107 101 55 121 197 157 138 133 131 132 131 134 134 134 125 123 121 115 104 92 95 97 101 101 92 88 91 92 86 81 75 71 62 60 108 135 104 110 114 87 89 110
237 223 223 223 184 168 169 150 147 137 133 128 117 120 137 133 120 116 116 116 104 84 83 38 145 171 159 137 130 126 120 128 125 122 125 122 122 122 122 110 93 69 92 113 110 108 107 98 90 91 90 85 74 70 66 58 49 79 135 108 112 110 139
305 246 205 182 132 153 138 139 133 129 127 122 113 113 123 121 117 111 111 111 96 75 74 38 136 151 144 126 118 110 108 106 103 100 96 94 100 101 108 111 99 80 86 93 97 103 101 96 91 82 73 66 67 61 63 62 68 67 65 91 115 113 131
29 28 12 93 111 100 96 82 74 71 84 78 98 126 139 128 110 108 108 108 105 77 27 72 125 127 121 112 106 103 102 97 90 80 73 75 74 72 60 81 109 120 102 77 64 103 102 99 91 82 74 64 59 53 45 35 36 45 54 63 71 80 76
26 47 36 16 49 76 77 75 73 67 70 78 60 45 65 99 107 105 110 113 105 85 48 77 127 125 119 113 105 101 103 97 91 81 71 59 61 62 70 81 97 99 99 82 79 106 109 107 95 91 84 79 71 60 54 49 50 54 62 65 60 59 48
15 50 69 44 19 47 70 71 70 66 75 65 67 39 7 63 70 83 76 71 91 78 59 58 103 122 122 116 104 107 102 92 87 88 77 61 51 45 56 70 73 90 85 76 98 124 118 110 105 100 99 91 83 73 55 39 65 82 88 84 81 80 77
22 18 55 84 70 42 47 65 61 59 67 74 66 54 349 62 59 53 60 69 75 92 75 52 78 92 103 111 118 115 107 100 91 91 87 82 83 55 34 65 76 76 82 68 88 101 110 109 111 116 115 106 92 81 58 22 98 91 93 85 80 77 70
23 27 22 63 71 71 75 63 72 69 64 64 65 58 359 63 70 56 50 61 65 66 65 53 65 81 89 101 106 109 109 105 98 94 97 85 70 81 55 52 63 77 88 93 91 93 97 102 104 110 116 105 98 87 60 32 81 77 53 54 41 51 47
21 30 37 33 59 71 82 79 67 76 66 59 61 51 29 57 65 56 51 50 53 50 55 45 39 65 81 85 106 114 115 110 108 96 80 92 97 82 63 63 59 70 86 82 79 76 73 89 105 109 107 102 105 94 116 83 60 81 84 81 70 60 60
22 22 26 35 49 59 56 84 90 77 74 71 63 56 42 45 63 61 56 52 48 45 41 47 32 48 60 66 69 101 101 108 113 108 104 88 88 91 77 56 62 60 79 79 76 73 72 70 79 85 80 85 74 120 104 89 73 76 80 73 64 54 46
23 20 23 20 35 52 48 56 59 85 86 79 76 65 57 44 58 62 64 60 48 46 41 42 41 36 50 62 63 84 101 94 120 117 98 95 89 74 67 68 57 74 81 80 79 76 75 75 77 76 75 88 92 91 85 85 84 70 63 59 64 55 41
24 20 20 18 33 47 47 53 59 53 73 78 79 74 64 55 61 60 59 55 49 45 41 41 38 44 44 55 63 68 82 91 85 94 108 105 100 101 88 87 89 88 83 81 79 78 79 77 73 81 90 86 86 89 85 71 70 69 66 65 64 62 50
31 25 19 18 30 37 39 52 57 55 60 70 70 71 46 51 59 59 62 56 46 41 39 45 41 40 45 51 59 64 71 77 85 92 93 102 103 102 99 93 97 91 86 83 78 73 69 70 82 85 83 85 85 82 80 79 68 72 72 63 59 53 48